Regional Weather Roundup
Issued by NWS Spokane, WA

Home | Current Version | Previous Version | Text Only | Print | Product List | Glossary On
Versions: 1 2 3 4 5 6 7 8 9 10 11 12 13 14 15 16 17 18 19 20 21 22 23 24 25 26 27 28 29 30 31 32 33 34 35 36 37 38 39 40 41 42 43 44 45 46 47 48 49 50
624
NZUS01 KOTX 270010
RWROTX
EASTERN WASHINGTON/NORTHERN IDAHO ROUNDUP
NATIONAL WEATHER SERVICE, SPOKANE WA
500 PM PDT THU MAY 26 2016

Note: "fair" indicated few or no clouds below 12,000 feet with no
significant weather and/or obstructions to visibility.

...NORTHEAST WASHINGTON AND NORTHERN IDAHO PANHANDLE...

CITY           SKY/WX    TMP DP  RH WIND       PRES   REMARKS
SPOKANE INTL   PTSUNNY   65  39  38 SW15      29.95F
SPOKANE DOWNTO PTSUNNY   66  44  45 VRB7      29.95F
COEUR D ALENE  CLOUDY    63  46  55 S10       29.93F
DEER PARK      PTSUNNY   64  42  44 S12       29.95F
SANDPOINT      CLOUDY    63  46  55 SW7       29.94F
BONNERS FERRY  FAIR      64  45  48 S8        29.92F

...SOUTHEAST WASHINGTON AND SOUTHERN IDAHO PANHANDLE...

CITY           SKY/WX    TMP DP  RH WIND       PRES   REMARKS
WALLA WALLA    PTSUNNY   68  37  32 SW14      29.97F
PULLMAN/MOSCOW CLOUDY    61  42  49 W9        30.00F
LEWISTON       CLOUDY    69  43  38 NW14      29.95F
LOWELL           N/A     70  46  42 S8        29.90F

...COLUMBIA BASIN...

CITY           SKY/WX    TMP DP  RH WIND       PRES   REMARKS
EPHRATA        SUNNY     74  37  26 SW10      29.90F
MOSES LAKE     MOSUNNY   74  29  19 SW14      29.91F
TRI CITIES     SUNNY     75  37  25 SW21      29.94F
HERMISTON        N/A    N/A N/A N/A MISG        N/A
PENDLETON      MOSUNNY   68  32  26 W20G29    29.98F

...EAST SLOPES CASCADES...

CITY           SKY/WX    TMP DP  RH WIND       PRES   REMARKS
THE DALLES     MOSUNNY   65  40  39 W25G37    30.09F
YAKIMA         MOSUNNY   73  37  27 NW18G24   29.96S
ELLENSBURG     MOSUNNY   62  39  42 NW31G40   29.99S
STAMPEDE PASS  CLOUDY    41  35  79 W10G20    30.11F
WENATCHEE      MOSUNNY   70  35  27 NW23G33   29.92S
OMAK           MOSUNNY   73  37  27 SW10      29.86F

...SOUTHERN BRITISH COLUMBIA...

CITY           SKY/WX    TMP DP  RH WIND       PRES   REMARKS
PENTICTON      PTSUNNY   70  36  28 NW6       29.88F
CASTLEGAR      PTSUNNY   66  48  52 SW12      29.87S THUNDER
CRANBROOK      PTSUNNY   61  41  48 NE9       29.86R

...WESTERN MONTANA...

CITY           SKY/WX    TMP DP  RH WIND       PRES   REMARKS
MISSOULA       MOSUNNY   62  45  53 N8        29.91F

...NEIGHBORING CITIES...

CITY           SKY/WX    TMP DP  RH WIND       PRES   REMARKS
SEATTLE        CLOUDY    61  45  55 SW14G21   30.15F
CALGARY        PTSUNNY   63  45  51 S15       29.82F



USA.gov is the U.S. government's official web portal to all federal, state and local government web resources and services.